Theta_e
340 341 348 346 343 336 331 337 341 343 341 342 341 342 343 342 343 343 343 343 343 342 341 340 341 341 340 342 342 342 342 342 341 341 341 341 340 338 338 337 337 337 337 337 340 342 343 343 342 340 334 328 327 328 324 321 326 332 335 336 335 332 333 338 340 340 340 340 338 334 332 332 331 329 328 326 325 325 323 328 337 339 336 332 332
341 342 348 346 344 336 332 339 342 343 341 343 342 342 343 342 343 342 343 342 342 342 341 342 343 342 342 342 342 342 342 342 341 341 339 336 336 336 336 336 336 336 335 332 333 336 340 341 341 338 330 328 330 330 327 322 326 332 336 336 335 332 335 339 339 340 340 339 336 333 332 330 329 326 325 323 322 322 320 323 332 338 334 331 333
342 344 348 346 345 336 333 339 342 343 342 344 342 342 343 342 343 342 342 342 342 342 342 343 343 343 342 342 343 343 342 342 341 339 336 335 336 336 336 335 336 337 335 331 327 327 332 335 338 336 329 331 333 331 329 324 325 330 333 333 333 332 334 337 339 339 338 338 336 335 336 334 330 325 326 326 322 321 319 317 321 330 327 327 329
343 345 347 347 345 337 334 339 341 342 342 344 342 342 343 342 343 342 343 342 343 342 343 343 342 342 342 343 343 343 342 342 341 339 337 336 336 336 336 334 334 334 333 331 328 324 324 328 332 333 333 335 334 331 330 328 326 326 328 330 331 331 333 336 338 338 338 338 335 337 337 337 335 325 327 328 323 320 317 315 315 320 319 319 320
343 344 346 348 345 338 336 338 340 341 341 342 342 341 342 342 343 342 342 342 342 342 343 342 342 342 342 343 342 343 342 341 341 340 337 336 337 338 339 337 334 334 335 334 332 327 322 324 327 332 337 336 332 330 329 330 329 326 325 326 328 329 331 334 334 335 335 334 332 334 333 334 338 330 326 326 322 319 315 315 314 313 315 315 321
343 344 346 346 345 340 337 339 339 340 340 340 341 341 342 342 342 343 342 342 342 342 342 342 342 342 342 342 342 342 342 341 341 338 335 336 339 340 340 338 336 335 336 335 334 332 327 323 322 330 337 333 329 329 329 330 330 329 327 326 325 325 325 325 325 324 325 328 329 331 331 330 337 333 323 322 318 316 315 313 312 311 312 313 328
344 344 347 345 345 342 339 339 340 341 338 340 341 342 342 342 343 343 342 342 342 342 342 343 342 342 342 342 342 342 341 341 340 337 336 337 339 339 339 337 336 337 336 335 335 336 334 328 324 330 334 330 328 329 331 331 331 331 330 329 328 326 323 321 317 316 322 330 331 330 331 330 335 331 320 321 318 315 314 312 313 311 312 312 325
343 344 346 344 345 343 340 339 342 341 338 339 341 342 343 343 343 343 343 342 342 342 342 342 342 342 341 341 341 340 340 341 340 339 338 338 339 339 338 334 333 335 337 337 336 337 336 335 331 330 330 328 329 331 331 331 331 331 331 331 329 327 325 322 319 322 330 332 332 331 332 331 334 331 319 320 320 316 314 320 324 315 314 313 321
343 344 345 344 345 342 340 339 342 342 338 339 341 342 343 343 343 342 343 342 342 342 342 342 342 342 341 340 340 340 340 339 340 340 338 337 338 338 335 331 330 332 336 337 337 337 337 337 333 328 327 328 331 331 332 332 332 332 331 331 330 328 326 325 326 334 337 331 332 333 334 333 333 330 322 321 321 320 320 330 335 326 320 313 318
343 344 345 344 346 343 340 339 341 341 338 339 342 342 343 343 342 342 342 342 342 342 342 342 342 341 340 339 339 340 338 337 337 336 336 337 337 337 335 332 332 332 335 337 337 337 338 335 330 326 328 330 331 332 332 332 332 331 331 331 331 329 327 328 333 338 338 333 334 332 332 333 335 331 323 322 323 323 323 329 332 329 324 315 315
343 345 345 344 346 343 340 340 340 340 339 340 342 342 342 342 342 343 342 342 343 342 343 342 342 341 340 339 339 338 337 337 336 335 334 335 335 335 334 334 334 334 335 338 337 338 337 331 327 328 330 331 331 332 333 333 332 332 331 331 332 332 331 334 338 338 336 334 334 334 332 334 337 331 322 323 324 324 324 325 325 325 323 318 318
343 345 344 345 346 342 339 340 340 339 339 340 342 342 342 342 342 342 341 343 342 342 342 342 342 341 341 339 339 338 338 338 337 336 334 333 333 332 332 332 333 334 335 337 337 336 332 328 327 329 330 331 331 332 333 334 334 333 332 331 332 332 333 337 339 336 336 334 334 337 336 337 337 329 323 324 324 325 325 324 325 325 323 320 319
343 344 344 346 345 341 339 339 339 339 338 340 342 341 341 342 343 342 342 342 342 342 342 341 341 341 340 339 340 340 339 338 337 336 334 333 333 332 332 331 331 333 333 333 333 330 327 327 328 329 330 331 331 332 333 334 334 333 333 332 332 332 333 336 338 335 335 334 335 337 336 338 336 329 326 325 324 325 325 325 325 324 323 322 320
342 343 343 345 345 341 339 338 338 339 338 340 341 341 342 342 342 342 342 342 342 342 342 341 340 340 340 340 340 340 339 338 337 337 335 334 334 333 332 330 329 331 331 329 327 325 325 326 326 328 330 330 331 331 332 333 333 332 332 333 332 332 333 335 336 335 334 335 336 336 336 338 335 329 328 327 326 325 325 325 325 324 324 323 323
342 344 343 344 345 342 339 337 338 338 338 339 341 341 342 343 342 342 342 342 342 342 342 341 340 340 340 340 340 339 339 338 337 336 335 333 332 331 329 328 328 330 330 326 323 323 324 324 325 327 329 329 330 331 331 332 333 330 328 330 332 331 334 337 335 334 335 335 335 336 336 337 332 329 329 329 327 326 326 326 325 325 325 325 325
343 343 343 343 343 343 340 339 338 337 338 340 342 341 342 343 342 342 341 342 342 341 341 340 340 339 339 339 339 338 337 337 336 335 335 334 331 328 326 327 328 329 328 325 322 322 323 323 325 327 328 328 329 330 329 329 332 332 329 327 330 331 331 335 335 334 334 335 335 336 336 336 333 330 330 329 329 328 327 326 326 326 326 326 325
343 343 344 343 342 342 342 341 339 337 338 341 342 342 342 342 341 342 341 341 341 341 341 340 340 338 338 338 336 336 335 334 334 332 332 333 331 327 325 326 328 329 329 327 324 323 323 323 325 326 327 327 327 329 329 328 330 332 332 328 329 332 330 331 335 335 334 334 335 335 337 337 334 332 331 330 330 330 329 328 327 327 327 327 326
343 343 344 343 342 341 341 342 340 339 340 341 341 342 342 341 342 342 341 341 341 341 340 339 336 334 333 332 329 327 328 331 332 331 331 330 328 326 325 326 327 329 329 328 326 324 324 325 326 327 326 327 327 327 327 327 327 330 333 329 329 334 332 331 335 334 334 335 335 335 337 336 334 333 333 331 330 330 330 330 329 329 328 328 328
342 343 344 343 342 340 341 342 341 340 340 341 342 342 341 341 341 341 341 340 340 340 339 335 332 329 326 323 319 316 316 320 324 325 325 322 321 324 325 325 327 328 329 329 328 327 326 326 326 327 327 327 327 326 326 325 326 327 331 330 329 332 332 333 335 333 333 335 335 335 337 335 333 333 333 333 331 330 330 332 334 333 331 331 331
342 343 343 342 341 340 341 342 341 341 341 342 342 342 341 341 341 341 340 339 340 338 335 332 329 326 321 317 316 319 319 316 319 320 316 314 319 326 325 324 327 327 329 328 328 328 327 326 326 326 326 325 325 324 323 322 323 325 328 330 328 330 334 335 334 332 332 334 334 336 337 334 333 333 333 333 333 332 330 333 337 336 334 334 333
342 342 342 341 341 341 341 341 341 340 341 342 343 343 341 340 340 340 339 339 338 335 333 332 330 326 320 319 325 332 332 328 329 326 319 316 316 322 324 324 327 327 328 327 326 326 324 324 323 323 324 324 323 324 325 323 323 325 326 328 327 331 336 335 333 333 332 332 334 336 335 332 332 333 333 333 333 333 332 332 335 336 335 334 333
341 342 341 340 341 341 341 341 341 340 341 342 343 344 341 341 341 340 339 338 337 335 335 335 334 332 326 327 334 336 335 335 335 332 331 326 314 315 322 324 326 326 326 326 324 323 322 322 322 324 325 324 325 330 332 329 328 327 326 326 329 333 335 334 333 333 332 332 333 334 334 332 332 332 332 333 333 334 334 332 333 335 335 335 334
341 341 340 340 341 341 341 341 341 340 341 342 343 344 342 342 342 341 340 339 339 338 338 337 336 336 333 334 336 335 336 336 333 331 331 326 312 310 320 324 325 325 325 324 323 323 322 324 326 327 327 326 329 333 333 332 332 331 330 330 331 334 334 334 333 332 333 333 334 334 333 332 332 332 332 332 333 333 334 333 333 334 335 335 334
341 341 340 340 340 340 341 341 341 341 341 342 343 344 343 343 342 342 341 340 340 339 338 337 336 336 336 335 336 336 337 336 332 329 329 326 315 310 316 323 325 324 324 324 325 325 326 328 328 327 329 331 333 333 331 332 333 333 334 333 333 333 333 333 333 333 334 335 336 335 333 333 333 333 333 332 333 333 334 335 336 335 334 335 335
341 341 340 339 340 340 341 341 341 341 341 341 342 343 344 343 343 342 341 341 340 339 338 337 337 336 336 336 336 336 337 337 336 336 335 334 328 321 322 326 328 326 325 329 332 331 332 333 332 331 334 335 335 335 335 335 335 336 336 336 335 335 335 334 335 336 336 337 339 337 335 334 334 333 333 333 332 333 336 337 337 336 335 335 336
342 341 340 339 340 340 340 341 340 341 341 341 342 343 344 343 343 342 341 340 339 337 337 337 337 337 337 336 337 337 337 337 338 339 338 337 335 332 330 330 332 330 330 335 336 336 337 337 337 337 338 338 338 339 339 338 337 336 336 337 337 336 336 336 336 337 337 337 339 338 336 335 335 335 334 333 332 333 337 338 336 337 336 335 336
341 341 340 340 340 340 340 340 340 341 341 340 341 343 343 342 342 342 341 340 338 337 337 337 337 337 337 337 338 338 338 338 338 339 339 339 337 335 334 334 335 335 337 339 339 340 340 339 340 340 340 339 339 339 338 338 337 336 335 336 336 336 336 335 336 336 336 336 337 337 337 336 336 336 335 335 334 333 337 338 336 337 337 337 337
341 340 339 340 340 340 340 340 339 340 341 341 341 342 342 342 342 341 340 339 338 337 337 338 338 338 338 338 339 339 338 338 339 339 340 340 339 339 338 338 339 340 341 341 341 341 341 341 341 340 339 338 337 338 336 336 336 336 335 334 334 334 334 335 335 336 335 336 336 336 336 335 335 336 335 335 335 334 337 338 337 336 337 337 336
341 341 340 340 340 340 340 339 338 339 340 341 341 342 342 342 342 341 340 339 337 337 338 339 338 338 338 338 339 339 339 339 339 339 340 340 341 341 340 340 341 341 341 342 342 341 341 341 340 338 337 336 336 337 336 335 335 334 334 333 332 333 334 335 335 335 335 336 336 337 337 335 335 336 335 336 335 335 337 337 337 337 337 336 336
341 341 340 340 340 339 340 339 338 338 340 341 340 341 342 342 341 341 340 339 337 338 338 339 338 338 338 338 339 339 339 339 339 339 340 340 341 341 341 342 342 342 342 342 342 342 341 339 338 337 336 336 336 337 336 335 333 332 333 333 333 334 335 335 336 336 336 336 337 339 338 336 335 335 335 335 335 336 337 337 337 337 337 336 336
340 341 340 340 339 339 339 339 338 338 339 340 340 341 342 341 341 340 340 339 338 338 338 338 338 338 338 338 338 339 339 339 339 340 340 340 340 341 341 342 342 342 342 343 342 341 340 338 338 338 338 337 336 336 335 333 332 332 333 334 335 335 335 335 337 337 337 337 338 340 339 337 336 335 335 336 335 335 336 336 336 336 336 336 336
340 340 340 339 338 338 338 338 338 339 340 340 340 341 341 341 341 340 340 339 338 338 338 339 339 339 338 337 337 338 338 339 339 340 340 339 339 340 341 342 343 343 342 342 341 340 339 339 339 340 339 338 336 335 333 333 333 333 333 333 334 334 334 335 336 337 337 338 338 339 338 338 336 334 333 333 333 333 333 334 334 334 334 334 334
340 340 340 339 338 338 337 338 338 339 340 340 340 341 340 340 340 340 340 339 338 337 338 339 339 339 338 336 337 338 338 339 339 340 340 339 340 340 341 342 343 343 343 342 340 339 339 340 340 339 338 336 334 334 333 332 332 332 333 332 332 333 333 334 335 336 337 336 336 335 335 335 334 333 332 331 330 331 330 331 331 332 333 333 334
340 339 339 339 337 337 337 337 338 339 340 340 340 340 340 340 340 340 340 339 338 338 338 339 339 338 337 336 337 338 338 339 339 340 340 340 340 341 342 342 343 343 342 341 339 340 340 339 338 337 336 334 333 333 332 332 331 331 331 331 331 332 334 334 334 335 334 333 332 331 331 331 331 331 331 330 329 328 327 328 329 329 330 331 332
340 340 338 338 337 337 337 337 338 339 340 340 340 340 339 340 339 339 339 338 338 338 339 339 339 338 337 337 338 338 339 340 340 341 340 341 342 342 343 342 342 342 341 340 340 340 340 338 337 337 336 334 333 332 332 332 333 332 332 332 332 333 334 333 333 333 332 331 328 326 325 326 326 327 329 330 329 327 324 324 325 325 325 326 328
341 340 337 337 337 337 337 337 338 339 339 339 339 339 340 339 339 339 339 338 338 339 339 339 339 338 338 338 337 337 339 340 340 340 341 342 342 342 342 342 341 342 341 341 341 339 338 337 336 337 336 334 333 333 332 332 332 333 333 333 333 333 333 332 331 330 330 328 326 324 321 320 321 322 324 326 327 326 323 320 320 320 321 321 322
341 340 338 337 337 337 337 337 337 339 339 339 339 338 339 339 339 340 339 338 338 339 339 339 338 338 338 337 337 338 339 340 340 341 342 342 342 342 342 341 341 342 341 340 340 338 337 337 335 335 336 334 332 332 331 330 330 332 334 333 333 332 331 331 330 328 328 327 326 323 320 317 317 319 321 322 323 325 321 317 316 316 316 317 316
341 340 339 337 337 337 337 337 337 338 338 338 338 338 339 339 339 339 339 338 338 339 339 339 339 339 338 337 338 339 340 341 341 342 342 341 341 341 340 340 341 341 340 339 337 336 336 336 334 333 334 333 331 331 329 327 328 331 333 333 331 331 331 330 328 327 326 325 324 322 319 315 315 317 318 319 319 321 319 314 314 314 313 312 311
341 340 339 338 337 336 336 336 337 338 338 338 338 339 339 339 340 339 339 338 338 339 339 339 339 339 338 338 338 338 340 341 342 342 342 341 341 340 340 340 340 339 338 337 336 336 336 335 334 333 334 332 329 329 327 326 329 331 332 331 331 331 330 329 327 325 323 321 320 318 316 313 313 314 316 316 315 316 316 313 311 311 311 309 307
340 340 339 338 338 337 336 336 336 337 338 338 338 338 339 339 339 338 338 338 338 339 339 338 339 339 338 338 338 338 339 341 341 342 341 340 340 339 339 338 338 338 337 336 335 335 335 334 333 332 333 332 327 325 325 327 331 332 331 330 331 330 328 327 326 324 321 317 316 315 313 311 311 313 315 315 312 311 312 311 310 309 309 308 307
340 339 339 339 339 338 337 336 336 337 337 337 337 338 338 338 338 338 338 338 338 338 339 339 338 338 338 338 338 338 339 340 341 341 340 339 338 338 337 337 337 336 335 335 334 334 333 333 332 331 330 330 326 323 324 329 331 330 331 331 330 330 328 326 324 322 318 312 312 313 312 311 311 312 313 313 310 309 309 310 310 309 309 309 309
340 340 339 339 339 338 337 337 336 336 336 337 337 337 338 337 338 338 338 338 338 338 339 339 338 337 338 338 339 339 339 340 340 339 338 337 337 336 336 336 335 334 334 333 332 332 331 331 331 331 329 327 325 323 321 325 326 324 330 332 330 329 328 326 324 321 314 309 310 312 312 311 311 311 311 310 309 309 308 309 309 309 309 309 309
341 340 340 339 339 338 337 337 337 336 336 336 336 337 338 337 338 338 337 338 338 338 338 338 338 337 338 338 338 338 338 339 338 338 337 336 336 335 335 335 334 333 333 332 331 330 329 329 329 330 330 326 324 322 320 321 323 325 329 328 327 330 329 325 323 321 314 309 309 311 311 311 310 310 309 309 308 309 308 308 309 309 308 309 308
341 340 340 340 339 338 337 337 337 337 337 336 336 338 337 335 337 338 337 338 338 337 337 337 337 337 337 336 335 335 336 336 336 336 335 334 334 334 333 333 332 331 331 330 329 327 326 326 326 326 328 327 324 321 320 319 321 325 326 324 323 325 324 320 323 322 315 311 309 310 310 310 310 310 308 308 308 308 309 308 309 309 308 308 308
340 340 340 340 340 339 338 337 337 338 337 336 336 336 334 333 335 337 337 337 336 336 336 336 335 335 334 333 331 331 332 333 333 333 333 333 332 332 331 330 330 330 329 328 326 324 323 323 324 324 325 327 325 322 320 318 318 319 322 324 324 320 316 317 322 321 315 311 310 310 310 310 310 310 309 309 309 308 309 308 308 308 308 308 308
340 340 340 340 340 339 338 337 337 338 337 336 334 330 331 333 335 336 336 336 336 335 336 336 335 333 331 330 329 329 330 331 331 331 331 330 329 329 329 329 329 328 327 325 323 321 321 321 321 321 322 324 324 322 321 319 317 316 316 316 318 316 314 315 318 320 316 312 310 311 311 310 310 310 309 308 308 308 308 308 308 308 308 307 307
340 340 340 340 339 338 339 337 335 336 335 335 331 325 329 334 335 336 337 336 336 336 336 336 333 331 330 328 328 329 329 330 329 329 328 328 328 328 328 327 326 325 323 322 320 319 319 318 318 319 319 320 320 320 321 319 317 316 314 311 310 311 312 314 316 318 318 313 309 310 310 309 308 309 308 307 307 307 307 307 307 307 307 307 307
340 340 340 339 337 336 336 335 334 334 333 331 329 326 330 335 335 337 337 336 337 336 334 333 330 330 330 328 328 329 329 329 327 327 326 326 326 326 325 325 323 322 320 319 319 318 317 316 316 316 316 317 318 316 316 317 315 315 314 312 311 311 311 313 315 315 315 312 310 310 309 307 306 306 307 307 306 306 306 306 307 306 306 306 306
340 340 339 336 334 334 334 334 333 334 333 330 330 330 332 334 335 337 337 336 336 333 331 329 328 328 328 327 328 330 329 327 325 324 324 324 324 324 323 322 320 319 318 317 316 314 314 315 315 314 313 313 314 313 312 313 314 314 314 313 313 312 311 312 313 313 313 313 310 311 310 309 308 306 306 307 306 306 305 305 306 306 305 306 306
340 339 336 334 333 334 333 334 333 334 334 333 332 334 334 335 336 337 337 335 332 331 329 327 326 326 326 326 328 328 326 325 324 322 322 322 322 322 321 319 317 316 316 315 313 311 311 312 311 311 311 311 310 311 312 312 312 312 312 312 313 312 312 312 312 312 313 313 311 310 310 310 310 308 306 307 306 305 305 304 305 305 305 305 305
340 338 334 333 334 334 334 333 333 334 335 334 334 336 336 336 337 336 336 334 331 331 328 325 324 324 325 325 326 325 324 323 321 320 320 320 320 320 318 316 315 315 315 314 313 312 311 310 308 307 309 310 309 310 310 311 311 310 310 310 311 311 311 311 311 311 311 313 312 310 309 309 308 307 306 307 306 304 304 303 304 304 304 304 305
Wind_Speed
17 19 19 21 22 22 21 17 16 15 16 15 16 18 18 19 19 18 18 18 17 17 17 18 18 19 20 19 18 17 17 17 16 16 15 14 14 14 13 14 13 13 13 14 14 13 13 12 12 12 11 11 11 11 12 12 11 14 15 12 10 10 11 11 10 10 10 9 8 8 7 7 7 7 7 7 7 6 6 9 9 7 6 7 8
20 20 20 21 23 23 21 18 15 16 16 16 17 17 17 18 18 18 18 18 18 18 18 18 17 18 19 19 18 17 17 16 15 15 14 14 13 13 12 13 13 13 12 12 13 14 13 12 11 11 12 11 12 12 14 13 12 14 14 12 11 11 11 11 10 9 8 7 7 8 8 7 6 7 7 6 6 6 5 5 7 7 6 6 7
21 20 20 21 23 23 21 18 15 15 16 16 17 18 17 17 17 18 18 18 18 18 18 18 17 19 19 18 18 17 16 15 14 14 14 14 13 12 11 11 12 12 11 11 11 12 13 13 12 11 12 11 11 13 13 14 13 13 12 11 11 11 10 10 9 8 7 7 8 9 9 9 7 7 7 6 7 6 5 3 3 4 4 4 5
22 20 19 21 23 23 21 18 16 14 16 16 17 18 17 17 17 17 18 18 18 18 18 18 18 19 19 18 17 16 16 15 14 13 13 13 12 11 10 10 10 11 10 9 9 10 11 12 12 11 12 11 11 12 12 13 13 12 11 10 10 10 8 7 7 6 6 6 9 9 5 6 7 7 5 5 6 6 6 5 2 2 3 3 4
21 20 19 20 21 23 21 19 17 15 16 16 18 18 17 17 17 17 17 18 18 19 19 18 18 18 18 17 17 16 16 15 14 13 12 12 12 11 10 10 10 11 10 9 9 9 11 12 12 12 11 11 11 11 11 11 12 12 11 10 9 8 6 5 4 4 4 5 8 7 3 5 5 6 6 5 6 6 6 5 5 4 4 4 7
20 20 20 20 21 21 21 19 17 16 16 16 18 18 17 17 16 17 17 18 18 19 19 18 18 18 18 17 17 16 15 14 13 12 12 12 12 11 10 10 11 11 10 10 10 11 12 12 12 12 11 10 11 10 10 11 11 11 10 10 9 7 6 5 4 3 5 6 7 5 4 5 5 5 7 6 6 5 5 5 5 6 5 5 7
20 19 20 21 20 21 21 20 18 17 17 17 18 18 17 17 17 17 17 18 18 18 18 18 18 18 18 17 16 15 14 13 13 13 12 12 12 11 10 10 11 11 10 11 12 12 13 12 12 12 11 11 10 10 10 11 11 10 10 9 8 8 7 7 6 7 9 7 4 4 5 5 6 5 7 8 8 7 6 7 7 6 6 4 6
18 18 20 20 20 22 23 21 18 18 18 17 18 18 17 17 17 17 17 18 18 19 18 18 18 18 17 17 15 14 14 13 13 12 11 12 12 11 10 9 9 11 11 12 13 13 14 13 12 12 11 11 10 10 11 11 11 10 9 8 8 8 8 8 9 11 12 7 4 5 6 6 6 5 8 8 8 8 7 9 9 7 8 5 6
18 18 19 19 20 23 23 21 20 18 18 18 18 18 17 16 17 17 17 17 18 19 18 18 17 17 17 16 15 14 13 13 13 12 11 11 11 11 9 8 9 10 12 13 13 14 14 13 12 12 12 10 10 10 11 11 10 9 8 8 8 8 8 8 9 10 9 5 5 5 4 5 6 5 6 8 9 8 7 8 6 6 7 7 5
18 18 19 18 19 22 23 21 20 19 18 19 19 18 17 17 17 17 17 18 18 18 18 17 16 16 16 16 15 14 12 11 11 11 11 11 10 9 8 8 9 10 12 12 12 13 12 13 13 13 12 11 10 10 10 10 9 8 8 8 8 8 8 8 9 9 5 4 5 6 7 8 7 5 6 9 9 8 8 6 2 2 6 8 6
18 18 17 18 19 22 23 21 21 19 19 19 19 18 18 17 17 17 18 18 18 18 17 16 16 15 15 16 15 13 12 10 10 10 11 10 9 8 8 9 10 10 11 11 11 11 12 13 14 13 11 10 10 10 10 10 9 8 7 7 7 7 7 7 8 6 3 4 5 5 7 9 7 4 6 9 8 8 8 7 5 6 8 9 8
18 18 16 18 21 22 23 22 22 20 19 20 19 19 18 18 18 17 18 18 17 17 16 16 16 15 15 14 13 12 11 10 9 9 9 8 7 7 8 10 10 10 10 11 11 11 12 13 13 12 11 10 9 9 10 10 10 9 8 6 6 6 7 8 6 3 4 4 5 4 4 6 5 3 7 9 8 8 8 8 8 8 9 9 8
18 18 17 19 19 22 24 23 22 21 20 20 19 19 19 18 18 18 18 18 17 16 16 16 15 14 15 13 12 11 10 10 9 8 8 8 7 7 9 9 9 9 10 10 11 11 12 12 11 10 10 9 8 8 9 10 10 10 10 8 6 6 6 9 5 2 4 4 4 4 3 4 3 4 7 8 7 7 7 7 7 8 9 9 8
19 17 18 19 18 23 24 22 23 22 21 20 20 19 19 19 18 18 18 18 17 16 16 15 14 14 14 13 11 10 9 8 8 8 8 9 9 8 9 9 9 9 9 9 10 11 11 10 10 9 8 8 7 7 8 8 9 10 10 9 8 7 7 6 3 2 2 2 2 2 3 3 2 4 6 7 6 6 6 6 7 7 8 8 8
18 18 19 19 19 22 23 22 22 22 21 21 20 20 20 19 19 18 18 18 17 16 16 15 14 14 13 11 10 8 8 7 7 7 7 8 9 9 10 9 10 9 9 9 10 10 10 9 8 8 7 6 6 5 6 6 6 8 8 8 7 7 7 3 2 2 1 1 1 1 1 1 2 4 4 4 4 4 5 5 6 6 7 7 7
17 18 19 19 20 21 21 21 21 22 22 21 20 20 20 19 19 19 18 18 16 16 15 14 14 13 12 10 10 8 7 6 6 7 7 7 8 10 11 10 10 10 9 9 9 9 9 8 7 7 6 5 5 4 3 3 3 4 5 6 5 6 6 3 2 2 2 2 1 2 1 2 4 4 4 4 3 4 4 5 5 5 6 6 7
17 18 19 19 20 21 21 19 20 21 21 21 20 20 19 19 19 18 18 17 16 15 14 14 13 12 11 9 9 8 7 6 6 7 7 7 8 10 11 11 11 10 10 9 9 9 9 8 7 6 5 4 3 3 1 1 1 1 2 4 4 4 5 4 3 3 3 3 3 3 2 3 5 6 5 5 5 4 5 6 6 6 6 7 7
17 17 17 18 20 21 20 20 20 19 19 19 19 19 19 19 18 18 17 16 16 15 14 13 12 10 9 8 7 7 7 6 5 6 6 6 8 11 12 11 11 10 10 10 10 9 9 8 7 6 5 4 3 2 1 0 1 1 2 2 3 4 5 6 4 4 3 3 4 4 3 5 7 7 6 6 6 6 6 7 7 7 8 8 9
16 16 16 18 19 20 20 20 19 18 19 18 17 19 19 18 18 17 16 15 15 14 13 11 10 9 8 7 7 6 6 5 5 5 6 7 8 10 12 12 11 11 10 10 10 9 9 8 7 6 5 4 3 2 1 0 1 2 3 3 3 5 6 6 5 5 5 4 5 5 4 7 8 8 7 7 7 8 8 8 8 9 9 9 10
16 16 16 17 19 19 19 19 19 19 19 18 17 18 19 18 17 16 15 15 14 13 11 10 9 8 8 8 7 6 5 5 4 5 6 7 8 10 11 12 11 11 10 10 10 9 8 7 6 5 4 3 2 1 1 1 2 2 3 4 3 5 6 6 6 6 6 5 5 5 5 8 9 8 8 8 9 9 10 9 9 9 10 10 11
15 16 17 17 18 18 19 19 18 19 19 18 18 18 18 17 17 16 15 15 13 11 10 9 8 8 8 9 8 7 6 6 6 5 5 7 9 11 12 12 12 11 10 9 9 7 6 5 5 4 4 3 1 1 3 3 3 2 2 3 4 5 4 5 7 7 7 7 6 5 7 10 10 9 9 9 10 10 11 10 9 10 11 11 11
16 16 17 18 18 18 18 18 18 19 19 18 19 18 18 17 16 16 15 14 12 10 9 8 8 8 9 9 7 6 6 6 6 6 6 6 9 12 13 13 12 11 10 9 7 5 4 4 4 3 3 2 1 1 3 3 4 4 3 3 4 5 5 6 7 7 8 7 7 6 9 11 10 10 10 10 10 11 12 12 11 12 12 11 12
17 17 17 19 18 18 18 18 18 20 19 17 18 18 17 18 17 17 15 13 11 9 8 8 8 8 8 8 7 7 7 7 7 8 8 7 9 12 13 13 12 10 9 7 5 4 4 3 2 2 1 0 0 2 3 2 3 4 4 4 4 5 6 7 7 8 8 7 7 8 11 11 10 11 11 11 11 11 12 12 13 14 13 13 12
17 16 18 19 18 18 18 18 18 20 19 18 17 17 18 18 18 17 16 14 12 9 8 8 8 8 8 8 7 7 7 7 8 8 8 8 8 11 12 12 10 9 8 6 4 3 2 1 1 0 0 1 1 2 2 2 3 4 4 4 5 6 7 7 8 8 8 7 7 9 10 10 11 11 11 11 11 11 12 12 13 14 15 14 14
15 15 17 19 18 18 19 18 18 19 19 18 17 17 18 17 17 16 15 15 12 10 9 8 8 8 8 8 7 7 7 7 7 6 7 7 8 9 10 10 9 8 7 5 4 3 1 2 2 1 2 2 2 2 3 3 3 4 4 5 5 6 7 7 7 8 8 7 6 9 11 10 10 11 11 11 11 11 12 12 13 15 15 14 15
15 15 16 18 18 18 19 19 19 19 19 17 16 17 18 17 16 15 15 14 12 10 10 9 8 8 7 7 8 8 8 7 7 6 6 7 8 8 9 9 8 7 6 4 4 2 1 2 2 2 2 2 2 2 2 3 4 4 4 4 5 6 6 6 6 7 7 7 7 9 11 10 10 10 10 10 10 10 9 11 12 14 14 14 15
14 15 16 18 19 19 19 19 19 20 19 17 16 17 18 16 15 15 14 13 12 11 11 10 9 8 8 7 8 7 7 7 7 6 6 6 7 8 8 9 8 7 6 4 3 2 1 1 2 2 2 3 3 3 3 3 4 5 4 4 5 5 6 6 6 7 7 6 6 8 10 9 9 9 9 9 9 8 7 8 11 12 13 14 15
14 15 16 17 19 19 19 19 19 20 19 17 17 17 16 15 15 14 13 13 12 12 11 10 10 8 8 8 7 7 7 7 7 6 6 6 7 7 7 8 7 6 5 3 2 1 1 1 2 2 3 3 3 4 4 4 4 5 6 6 5 6 7 7 7 7 7 7 6 8 9 8 8 8 8 8 8 8 7 7 9 10 11 12 14
14 15 16 17 18 19 19 19 19 19 18 17 17 16 16 16 15 14 14 14 13 12 11 11 10 9 8 8 7 7 6 6 7 6 6 6 7 7 7 6 6 5 4 3 2 1 0 1 2 3 3 4 4 4 5 6 6 5 6 7 7 7 8 8 8 8 8 7 7 7 8 7 7 7 7 7 8 8 7 7 8 8 9 10 12
15 15 15 16 18 19 19 19 19 19 18 18 17 16 16 16 15 14 14 14 12 12 12 11 11 10 9 8 7 6 6 6 6 6 5 6 6 6 5 5 5 5 4 3 2 1 1 2 3 4 4 5 5 5 6 6 6 6 6 7 8 8 8 8 8 8 8 7 6 5 6 7 6 6 7 7 8 8 7 7 8 7 8 10 11
16 15 15 16 18 19 19 19 19 19 19 18 17 16 16 16 15 15 14 14 13 12 12 11 10 10 9 8 7 6 5 5 6 5 5 5 5 4 4 4 4 4 3 2 2 2 2 3 4 5 6 6 6 6 7 7 7 7 7 7 7 8 7 8 8 8 8 7 7 6 7 9 8 7 7 7 8 7 8 8 8 8 8 9 10
16 15 14 15 18 19 19 20 19 18 19 18 17 16 16 15 15 15 14 15 14 12 12 11 10 9 9 9 7 6 5 5 5 5 5 5 4 4 4 3 3 3 3 2 2 2 3 3 4 4 5 6 7 7 8 7 7 7 7 7 8 8 8 8 7 8 8 8 8 7 8 10 11 11 10 9 9 9 9 9 8 7 7 8 9
14 14 14 15 18 19 19 20 20 19 19 18 17 16 15 15 15 14 14 15 14 12 12 11 9 9 9 9 8 6 6 5 5 5 4 4 4 4 3 4 3 3 2 2 2 3 3 3 3 4 5 6 7 8 8 7 7 7 7 8 8 8 8 7 7 8 9 9 10 9 9 9 10 12 13 12 11 10 9 7 6 6 5 7 8
12 13 14 16 18 19 20 20 20 19 18 18 17 16 15 14 14 14 14 13 12 12 11 11 10 9 9 9 8 7 6 6 5 5 4 4 4 3 3 3 3 3 2 2 3 3 3 3 4 4 5 6 7 8 8 8 8 7 7 7 7 7 7 8 8 9 10 10 10 11 11 10 10 11 11 13 13 11 9 8 7 6 5 4 5
12 14 16 17 18 19 19 20 20 20 18 17 16 16 15 15 14 13 14 13 12 12 11 11 10 9 9 9 8 7 6 5 5 5 4 4 4 4 3 3 3 3 2 2 3 3 4 4 5 6 5 6 7 8 8 8 7 7 7 6 6 6 7 8 9 9 9 10 11 12 12 12 12 11 10 11 13 14 12 12 11 9 8 7 6
13 15 17 18 19 19 19 20 21 21 19 16 16 15 15 14 14 14 14 14 12 12 11 11 10 9 9 8 8 7 6 6 5 5 4 3 3 4 3 3 3 2 2 3 3 3 4 5 6 6 6 6 6 7 7 7 6 5 5 5 5 6 6 8 9 9 9 9 10 12 12 13 12 12 11 10 10 13 13 12 13 13 12 11 10
16 16 18 19 20 20 19 19 21 21 19 17 16 16 15 14 15 15 15 14 13 12 11 10 9 9 9 8 8 8 7 6 5 4 4 3 3 3 3 3 3 2 3 3 3 4 5 5 5 6 6 6 6 7 7 6 6 4 3 4 5 6 7 8 8 8 9 10 11 11 12 12 13 12 11 11 10 10 12 13 14 14 14 13 13
17 17 18 19 20 20 19 19 20 20 19 17 17 16 15 14 14 15 14 14 12 11 11 10 9 9 9 8 8 7 6 6 5 4 3 3 3 4 3 3 3 3 3 3 4 5 5 5 5 5 5 5 5 6 7 7 5 2 3 4 5 6 7 7 7 8 9 11 11 11 11 12 12 12 11 11 11 11 12 14 14 14 15 16 15
17 18 19 19 19 19 19 19 19 20 18 17 17 16 15 14 13 13 14 13 12 11 11 11 9 9 9 8 8 8 7 6 5 5 4 4 4 4 4 3 3 3 3 4 4 4 5 5 5 6 4 4 5 5 6 6 3 1 3 5 6 7 8 7 7 9 10 12 11 11 11 11 11 11 11 11 12 12 12 14 14 13 14 17 18
20 20 21 20 19 19 19 19 19 20 18 17 17 16 16 15 14 14 14 13 12 11 10 10 9 9 9 9 8 8 7 7 6 5 5 5 5 5 5 4 3 3 3 4 4 4 4 5 5 5 4 3 6 7 6 5 2 3 5 6 8 8 9 8 8 10 11 12 12 11 11 11 10 10 11 11 12 13 13 13 14 14 14 16 17
21 21 22 22 20 20 19 19 20 20 19 17 17 17 16 16 14 14 14 14 12 11 10 9 9 9 9 9 8 7 7 7 7 6 6 6 6 6 5 4 4 4 4 4 4 4 4 4 4 3 3 3 7 9 8 4 1 3 6 8 9 8 8 8 10 11 12 13 12 11 11 11 11 10 10 10 12 13 13 13 13 14 14 14 15
21 21 22 22 21 20 20 20 20 21 19 17 18 18 17 16 15 14 13 12 11 11 10 9 9 8 7 8 7 7 8 8 7 7 7 7 7 6 5 5 4 4 4 4 4 4 4 4 3 1 3 5 8 11 11 6 2 1 3 7 8 7 7 8 10 12 12 13 11 10 11 12 11 11 10 11 11 12 13 13 13 14 15 15 15
20 21 22 22 22 21 21 20 20 20 18 17 19 18 17 16 14 14 14 11 10 11 10 9 8 7 6 6 6 7 8 8 8 8 8 7 7 6 5 5 4 4 4 4 4 5 4 4 4 2 2 5 8 11 13 10 6 2 3 4 4 4 6 7 9 11 12 14 13 11 12 12 12 11 11 12 12 12 13 13 13 14 15 15 15
20 22 22 22 21 21 21 21 20 19 17 18 18 17 17 15 12 12 13 11 10 10 9 8 8 7 5 4 6 8 8 9 10 9 8 7 6 6 5 4 4 4 4 4 4 5 5 5 5 4 2 4 7 10 13 13 11 5 1 2 2 2 3 4 6 8 10 14 15 13 12 12 12 12 12 13 12 12 12 13 13 13 14 14 14
20 21 22 21 21 21 21 21 21 21 19 20 19 17 16 15 12 11 12 10 10 10 9 8 7 6 6 5 7 8 9 12 11 9 8 7 6 6 6 5 4 4 4 4 5 5 6 6 6 6 5 5 6 8 10 12 14 13 8 3 1 1 3 2 3 6 8 11 13 12 12 11 11 11 11 12 12 11 11 13 13 13 14 14 14
19 20 21 21 20 20 21 21 23 22 19 20 21 21 20 19 17 15 13 12 12 11 10 10 9 6 7 9 11 11 12 13 11 8 8 7 5 6 6 5 4 5 5 5 6 7 8 8 7 7 7 6 5 6 8 10 12 16 15 12 8 5 4 2 1 4 7 9 11 11 11 11 10 10 11 12 12 13 13 13 14 14 14 15 15
18 18 18 19 17 18 21 24 26 25 21 20 23 25 25 22 20 17 16 15 14 11 9 9 8 7 10 13 14 15 14 12 9 8 7 5 5 6 6 6 5 6 7 7 8 8 8 9 8 8 8 7 6 7 7 7 9 12 14 14 13 10 7 5 3 1 4 6 9 10 11 11 11 11 10 12 13 13 14 13 14 14 14 15 15
17 16 17 18 17 19 24 27 28 28 26 25 26 27 24 21 20 18 16 15 13 11 10 9 9 11 16 16 16 16 12 9 8 7 6 5 6 7 7 7 8 8 9 9 9 9 9 9 9 9 10 9 9 9 8 8 9 10 9 10 10 10 10 9 7 4 1 3 6 7 9 9 11 12 10 11 12 13 14 14 14 15 15 15 15
15 14 14 17 22 23 26 28 28 27 26 27 27 24 22 22 22 20 16 14 12 11 11 12 14 17 18 18 17 14 11 8 7 6 6 7 7 8 8 9 10 10 10 11 10 11 10 10 10 11 12 11 11 11 11 11 10 9 8 7 7 8 9 9 9 7 4 3 3 4 4 4 7 10 9 9 10 10 12 14 14 14 15 16 16
14 12 16 24 24 25 28 27 24 23 22 26 26 22 20 22 22 20 17 15 13 12 13 16 21 24 21 19 16 13 11 8 6 6 7 8 9 9 10 10 12 12 11 12 11 11 11 12 13 13 14 14 14 15 13 12 12 10 9 8 7 7 7 8 9 8 6 4 4 3 3 2 3 6 7 7 8 9 11 12 12 13 15 16 16
13 15 28 30 25 26 28 25 23 23 21 23 24 21 20 21 21 20 19 16 15 17 18 20 23 24 21 19 16 13 11 9 7 8 8 9 10 10 11 12 13 12 12 11 11 10 11 12 14 16 16 15 16 16 15 14 13 13 12 11 11 10 9 9 8 8 7 5 4 4 4 3 3 6 6 6 6 9 12 12 12 13 15 16 16
Wind_Direction
158 157 156 174 177 180 175 166 164 158 160 158 152 146 145 144 143 144 143 142 142 139 137 135 133 131 127 125 124 123 121 119 118 117 115 112 111 110 107 107 106 104 105 109 107 105 102 102 104 103 104 102 92 81 75 79 103 110 103 103 107 109 102 97 99 99 93 88 87 84 76 70 65 52 44 34 24 17 26 61 68 53 45 34 35
155 156 156 174 176 180 175 166 165 159 159 156 153 148 148 147 145 145 143 143 142 139 136 135 136 132 128 127 126 124 123 122 121 119 117 114 111 109 107 107 105 105 108 112 115 117 113 107 101 102 107 103 92 83 77 79 102 117 111 105 104 108 105 102 106 105 99 90 83 69 48 45 50 39 33 26 21 16 27 71 88 70 52 42 35
151 154 155 172 177 179 176 167 164 160 157 154 153 150 151 150 148 147 145 144 142 140 138 139 139 133 129 128 127 126 125 125 123 119 117 114 112 110 107 106 104 104 106 111 117 124 124 120 110 107 111 106 95 86 81 79 95 115 114 107 109 112 110 108 111 110 102 92 78 60 36 30 28 27 36 27 19 16 23 49 106 76 39 52 35
150 151 155 172 177 178 176 168 164 159 156 155 154 151 153 152 151 149 147 146 144 143 142 143 140 134 132 130 129 129 128 126 123 119 117 114 110 106 103 102 102 102 99 100 106 118 126 123 115 109 108 103 97 89 84 81 88 101 106 106 113 116 115 113 114 112 106 98 81 71 52 48 33 17 35 30 23 19 14 14 16 27 8 30 15
149 150 154 167 171 177 176 169 165 159 156 157 155 153 155 154 153 150 149 148 148 146 144 144 141 137 134 133 132 131 130 127 124 121 118 111 105 104 104 100 97 97 96 97 101 111 121 124 119 113 108 103 100 91 84 83 85 90 95 100 107 113 113 112 111 108 102 91 76 74 73 78 60 12 19 28 23 17 7 9 9 14 9 23 25
148 149 152 162 166 174 176 170 165 158 156 158 156 154 156 154 154 153 153 152 150 147 145 145 142 140 136 134 133 132 131 127 126 122 114 109 109 110 106 99 93 94 96 100 103 107 117 125 124 116 110 106 103 93 87 84 84 86 89 92 95 96 95 97 95 99 89 71 60 67 69 73 83 26 21 37 29 34 31 32 29 26 22 35 48
146 147 151 161 165 173 175 171 165 159 157 158 158 155 155 154 156 157 155 154 151 149 148 147 145 141 137 136 135 135 133 130 128 120 113 111 111 109 105 101 100 99 97 99 104 107 112 117 120 117 112 109 103 92 87 82 81 82 84 86 87 86 85 85 85 95 85 69 55 74 79 73 90 46 30 48 40 55 66 58 45 36 33 37 80
147 148 153 160 166 175 176 170 164 159 157 159 160 156 156 157 159 159 157 156 154 152 150 149 147 143 141 139 138 137 134 132 128 121 117 114 113 115 115 111 113 111 105 106 109 109 110 111 115 118 115 108 98 87 82 77 76 76 79 84 86 89 89 91 94 90 74 67 83 82 82 76 88 60 37 58 53 56 69 56 27 17 32 29 89
149 150 155 160 168 179 176 168 162 158 157 160 160 157 158 160 161 159 158 158 155 154 152 150 147 146 145 142 139 137 136 135 130 126 122 119 121 126 124 111 114 117 112 112 113 114 115 115 118 121 115 104 93 84 77 70 69 73 81 86 89 95 95 100 100 86 64 68 86 71 97 90 79 64 43 62 64 57 67 64 18 353 17 18 64
150 152 156 160 168 180 175 166 162 157 157 160 160 159 162 162 162 161 161 159 155 154 153 152 149 147 146 143 139 136 137 137 133 130 129 128 128 127 119 106 106 115 115 113 115 117 118 119 120 119 111 101 91 79 70 64 66 76 87 91 89 91 93 98 92 81 68 81 81 70 98 101 80 58 48 61 60 51 59 79 79 346 3 10 21
152 153 156 159 168 177 171 165 161 158 158 160 161 162 163 163 163 162 162 158 156 156 155 153 150 147 145 143 139 136 135 133 130 129 134 137 134 130 124 119 115 115 117 116 119 119 118 119 118 115 109 99 88 76 68 66 70 80 94 97 91 84 83 85 81 79 80 80 82 81 78 76 74 47 51 59 51 43 43 44 34 13 3 5 6
154 152 154 159 170 176 170 166 161 159 160 160 163 164 165 164 164 162 161 158 158 158 156 156 153 150 146 142 138 136 134 133 133 129 135 138 137 138 128 126 122 117 121 124 124 123 120 119 116 114 109 100 91 80 73 72 72 76 88 97 96 83 76 78 76 75 85 80 76 82 55 56 70 35 50 58 46 38 31 24 14 5 3 1 358
155 153 154 156 168 176 171 167 161 159 161 163 166 166 167 166 164 163 162 160 159 160 160 159 155 151 145 140 139 140 139 139 137 133 133 132 132 133 124 120 118 115 122 126 127 126 123 121 119 117 112 105 97 85 78 77 74 74 76 81 89 85 82 82 80 76 79 79 69 72 67 68 62 23 50 57 44 37 26 17 8 360 0 359 358
155 154 155 156 166 174 172 168 162 160 163 167 169 168 168 166 165 165 164 162 162 163 162 160 155 149 146 143 145 148 147 143 141 140 139 138 135 130 125 118 113 111 115 123 129 130 129 127 125 123 118 111 102 90 81 78 77 75 72 73 77 77 83 80 67 73 67 64 66 61 72 77 28 17 43 53 43 33 23 14 6 1 358 356 357
156 154 155 158 165 171 171 168 163 161 165 170 170 170 169 167 167 167 166 164 165 165 162 160 155 150 149 148 151 154 151 148 148 149 147 147 143 135 131 123 115 112 113 123 132 134 135 134 131 128 120 113 108 98 85 80 78 72 66 67 68 66 79 82 355 36 38 9 38 353 48 66 339 9 21 34 37 18 11 6 1 356 354 353 353
156 155 156 160 163 167 169 169 166 164 167 171 170 172 170 168 168 167 166 166 167 166 162 160 156 152 154 156 157 158 158 160 163 164 158 151 148 141 135 127 120 115 116 125 134 138 140 139 135 130 122 115 111 101 86 77 78 68 57 56 55 54 68 72 336 351 353 334 336 307 316 278 313 346 351 355 4 352 346 344 344 341 341 342 344
156 156 158 162 163 165 167 170 170 166 169 172 172 173 171 169 169 169 168 168 169 166 163 161 158 158 159 163 164 164 168 167 171 176 165 154 151 146 140 133 125 120 120 126 134 140 141 140 137 134 127 121 114 107 92 53 51 32 31 36 41 35 40 38 342 322 335 328 306 294 300 273 295 319 327 328 328 326 324 322 324 325 327 329 333
158 161 161 162 164 166 168 170 170 167 170 173 174 175 172 171 171 172 170 170 170 166 165 163 159 160 158 162 168 169 171 166 166 173 164 161 159 152 146 138 132 127 124 127 134 138 139 139 138 139 138 135 132 124 132 281 309 282 293 336 18 18 17 15 334 311 322 305 296 296 286 274 288 306 313 314 315 312 307 306 308 309 316 321 325
161 165 165 164 165 168 169 169 169 169 172 172 176 177 173 173 175 174 171 171 170 167 165 161 156 155 153 156 161 161 164 164 161 165 162 162 158 154 151 144 139 134 129 131 131 135 136 137 138 141 148 148 149 148 160 281 296 260 261 289 336 357 5 359 323 312 314 294 303 302 280 286 297 305 305 306 307 305 301 294 287 291 301 304 309
166 168 168 167 168 169 169 169 170 172 173 171 174 178 175 175 177 175 171 170 167 166 163 157 154 151 152 147 132 124 128 131 134 154 162 157 152 156 158 151 144 139 135 134 130 132 133 134 139 145 154 162 174 217 298 319 320 278 261 267 301 336 341 328 312 311 311 299 303 294 283 304 315 314 308 305 301 300 300 290 278 281 289 292 295
170 171 170 170 170 171 170 170 172 173 172 171 172 177 177 178 177 174 172 169 165 163 159 152 148 146 146 132 115 116 120 115 115 128 140 150 159 164 164 156 148 144 139 135 130 129 131 136 144 150 162 175 192 295 316 327 339 323 276 267 285 305 303 306 307 306 307 304 305 294 293 312 320 318 316 309 303 299 297 293 285 283 285 291 294
170 171 172 172 171 172 173 172 173 174 171 171 173 175 176 177 174 170 168 164 162 157 152 147 142 143 140 128 124 133 126 121 124 128 128 144 166 166 164 159 153 148 142 137 132 132 142 147 154 159 166 170 151 243 289 309 327 331 321 301 283 274 283 298 301 303 305 306 312 306 302 313 317 315 316 312 307 300 295 292 287 285 285 286 287
169 170 172 173 173 173 175 174 174 174 171 172 174 173 174 175 169 165 163 159 162 158 154 154 150 147 141 134 137 135 123 120 124 130 134 139 156 164 164 162 155 151 145 139 138 145 152 152 163 163 147 114 173 220 245 263 296 319 325 309 283 273 285 290 293 301 307 312 312 303 304 315 318 314 313 311 308 302 295 290 284 288 290 285 283
169 168 168 172 175 175 176 175 174 174 173 173 175 174 173 174 168 163 162 161 164 162 160 158 155 150 142 141 140 137 130 123 118 116 122 128 139 153 160 161 157 154 147 141 149 149 143 161 215 205 283 286 258 256 274 275 283 300 299 296 290 288 293 292 298 303 306 313 304 299 311 320 320 318 314 310 307 303 297 287 280 285 290 289 287
166 165 165 172 176 175 176 174 174 175 175 177 177 175 172 172 169 164 163 162 159 162 164 158 154 151 143 144 145 144 141 136 133 126 129 136 137 144 154 159 159 159 152 149 166 164 172 236 267 271 265 274 278 291 298 296 298 299 297 301 303 300 301 301 305 305 306 311 302 305 317 320 320 320 316 312 309 310 304 293 283 279 286 290 287
165 164 164 172 176 176 176 174 175 176 178 181 178 177 172 170 169 167 165 160 157 164 166 157 155 153 147 149 148 148 147 145 146 145 146 145 144 147 151 155 157 159 160 160 164 171 217 243 269 274 272 278 287 295 295 302 309 309 312 315 316 313 314 316 314 313 314 316 311 312 319 320 319 318 316 314 314 320 315 301 290 278 282 289 287
168 163 164 170 175 178 177 175 176 177 180 182 179 177 173 171 170 168 166 159 159 167 165 159 158 154 153 154 152 152 151 150 150 153 157 153 149 149 150 154 155 155 159 159 152 165 235 266 278 282 289 291 298 309 307 314 320 322 327 324 323 323 323 324 322 321 321 320 318 318 324 323 319 317 314 312 312 322 323 308 299 288 284 285 287
169 162 167 171 175 177 177 177 177 178 182 182 180 179 174 172 170 170 168 159 160 168 165 159 156 156 160 160 162 161 156 155 156 160 165 162 155 152 155 155 153 151 151 153 151 163 237 289 297 299 305 309 317 323 323 329 330 330 332 326 328 331 329 329 327 327 324 325 328 324 327 326 322 320 314 314 313 317 322 315 313 306 294 290 292
168 161 169 172 175 177 177 180 178 179 182 181 181 180 174 172 170 173 168 157 163 169 162 159 156 159 164 167 172 167 162 160 156 160 164 162 159 159 159 153 147 147 147 152 151 146 107 339 324 318 320 323 331 337 334 334 329 329 333 332 338 339 336 336 333 332 330 333 336 331 333 330 327 328 323 324 325 328 332 330 331 326 309 304 304
169 161 168 173 175 178 179 181 180 181 182 181 183 179 175 174 172 174 167 159 166 167 162 163 161 163 166 170 177 170 164 160 153 158 164 168 169 165 160 152 145 144 151 155 137 109 59 16 348 337 340 339 344 346 338 333 329 335 341 340 346 344 342 343 340 342 341 343 348 354 360 352 341 341 338 336 338 342 348 349 348 341 323 314 312
170 161 167 173 175 178 181 182 182 183 182 182 182 178 175 174 173 174 171 164 164 165 167 168 164 164 164 166 172 171 168 162 158 165 175 183 184 179 168 156 148 147 155 147 116 89 61 36 14 359 355 349 346 344 338 339 338 343 349 350 353 349 351 353 350 357 356 358 5 13 22 18 11 4 359 357 360 0 5 10 4 354 338 328 324
169 165 167 169 173 178 182 183 183 184 184 181 179 178 176 172 173 173 173 166 161 166 170 169 166 162 159 163 169 173 176 171 169 174 186 196 196 190 174 161 153 148 148 125 101 82 68 56 37 16 1 350 345 345 343 343 343 346 352 357 360 356 360 3 3 13 16 21 24 24 26 26 20 15 15 17 24 30 28 29 26 18 9 1 352
167 167 167 167 173 178 181 183 184 186 186 180 177 177 174 172 174 173 172 165 161 168 173 170 167 161 156 161 168 173 182 183 179 179 189 200 197 189 169 156 150 141 136 106 88 75 66 57 42 25 7 355 350 351 347 344 344 352 360 0 3 3 7 15 24 32 35 34 33 33 31 31 23 15 14 12 18 35 33 27 29 28 28 35 28
164 167 171 170 173 178 180 182 184 186 185 179 176 175 171 172 173 171 169 164 163 171 174 171 166 159 156 160 166 173 185 190 188 185 187 190 182 169 158 151 145 138 128 89 75 65 51 39 32 26 18 6 357 352 347 346 346 353 3 2 8 15 22 33 40 43 45 43 41 41 37 33 28 21 17 7 3 12 17 12 10 6 358 19 32
169 174 180 175 175 178 179 181 183 184 182 177 174 174 172 171 170 169 167 164 166 173 173 172 167 162 161 163 167 173 186 192 196 195 186 176 162 152 152 150 143 131 105 75 66 58 43 33 25 20 22 12 360 352 346 344 344 351 1 5 20 30 40 48 48 50 51 50 49 46 42 36 30 27 22 12 3 355 359 13 14 7 3 356 353
183 182 184 180 178 179 179 180 182 180 177 174 173 175 175 173 170 168 167 165 169 175 175 174 170 165 164 167 168 174 185 190 195 196 181 167 158 151 153 151 138 111 85 70 60 53 40 35 26 14 18 15 2 353 345 339 339 348 5 21 39 44 51 59 56 54 53 53 52 48 43 37 31 28 21 16 10 352 349 10 14 7 8 5 358
190 184 184 184 182 180 180 180 180 178 174 171 175 177 177 175 172 168 167 168 172 176 174 174 171 167 167 168 171 176 183 185 187 185 175 171 164 152 152 149 130 107 94 77 59 45 34 31 21 7 12 16 6 355 345 338 337 347 33 50 53 57 57 61 61 58 56 53 49 44 39 33 28 27 21 15 14 2 353 4 11 4 358 2 6
190 185 184 185 184 181 180 178 177 177 172 173 178 178 176 173 168 165 165 170 174 174 171 172 171 168 168 169 173 180 180 178 176 173 174 173 163 152 149 143 123 112 103 84 58 40 31 26 11 355 359 17 17 360 345 340 338 357 73 73 63 68 69 66 63 59 56 50 44 40 35 30 27 24 22 19 16 12 3 2 8 4 352 351 359
189 188 185 184 184 181 178 176 175 174 170 173 176 173 171 166 160 160 163 169 174 175 174 175 175 172 172 173 179 184 176 169 170 171 173 169 157 146 139 131 113 100 87 71 53 34 25 19 5 349 347 24 29 8 347 340 340 70 93 91 78 75 74 67 62 58 53 48 41 37 32 27 26 24 24 23 19 13 8 4 4 3 355 350 353
192 190 187 185 183 179 176 174 176 175 171 172 172 169 167 162 158 161 166 171 174 179 182 182 181 179 177 178 185 188 172 162 167 167 164 159 147 137 131 117 97 75 59 54 45 29 17 6 356 350 348 33 34 17 360 344 343 117 113 106 95 89 80 66 60 58 53 45 37 34 32 28 27 26 26 24 21 16 10 8 4 2 358 353 353
192 191 189 188 184 178 175 172 174 176 173 172 173 172 169 166 166 170 172 173 174 181 188 189 188 185 182 183 188 184 165 156 158 158 158 154 141 133 127 106 86 68 57 53 43 29 17 359 341 352 6 38 36 23 15 356 323 126 129 128 118 104 86 68 60 60 54 43 38 39 36 34 33 29 29 24 21 20 15 11 7 4 0 357 356
191 191 189 189 185 179 174 170 171 174 173 173 177 178 176 174 173 173 171 169 174 183 188 186 187 188 186 186 184 168 154 149 150 152 152 149 139 130 118 95 77 62 52 47 37 28 20 5 348 360 41 56 48 30 27 26 1 29 144 149 137 117 100 84 68 63 52 42 43 46 42 39 38 35 31 26 22 22 20 15 10 8 5 1 358
191 191 191 189 186 180 174 170 168 170 171 174 178 178 178 177 174 173 172 170 177 184 185 177 177 191 194 186 171 150 143 144 147 147 143 138 131 121 106 87 71 50 41 40 34 28 26 23 19 17 64 72 60 40 35 33 15 323 217 167 152 148 131 107 81 71 57 49 48 48 47 43 42 40 35 32 26 23 20 17 14 10 9 5 0
193 193 193 188 184 180 174 167 162 163 169 173 173 173 176 177 175 176 175 176 179 177 173 166 170 184 181 175 163 146 142 148 145 135 133 134 122 109 99 90 71 50 47 46 42 40 41 43 40 36 46 75 68 51 42 34 25 10 262 167 165 173 118 102 93 88 67 55 52 50 51 47 45 44 40 35 27 22 18 14 12 7 6 3 358
195 195 194 189 184 179 170 162 159 162 170 171 166 165 170 174 177 173 166 168 174 171 160 153 163 168 162 168 159 145 149 153 143 126 129 136 122 104 95 86 71 61 64 61 61 60 57 54 53 52 50 63 83 72 54 43 39 38 37 53 117 82 67 64 108 98 73 58 57 54 51 47 44 41 37 31 21 18 13 9 9 5 3 1 357
198 198 195 191 186 175 164 158 158 160 163 165 167 168 170 176 179 172 164 165 169 171 165 161 164 157 156 164 153 149 156 151 140 131 133 131 113 100 92 84 76 76 80 80 79 73 66 61 57 59 57 57 83 93 76 62 53 49 51 55 53 49 40 322 232 116 94 71 62 56 50 45 42 40 35 29 24 21 16 11 10 6 4 1 357
202 197 193 193 184 168 159 155 156 160 165 171 176 177 176 178 181 180 177 175 173 168 161 154 150 154 163 162 151 150 153 146 136 131 128 120 108 99 95 94 92 89 89 89 86 78 72 68 64 64 65 61 72 86 84 78 67 59 60 64 62 53 40 23 15 120 124 88 67 59 54 48 45 44 38 33 29 23 19 14 8 6 3 360 357
200 191 196 191 166 150 149 151 160 172 178 179 179 179 177 177 182 184 181 178 170 153 145 135 136 164 168 155 145 142 143 142 133 123 116 114 112 103 99 100 97 94 93 91 86 82 78 72 69 69 69 67 69 76 75 72 74 72 71 73 70 61 54 49 39 27 89 96 79 68 59 56 52 44 35 31 27 21 18 13 7 5 2 359 356
196 192 183 155 138 142 153 159 168 177 179 176 177 179 178 179 183 184 179 171 156 142 147 146 146 162 162 147 142 143 146 152 137 128 125 113 110 107 104 104 102 99 96 93 91 88 82 74 71 71 73 73 72 76 74 69 71 75 76 78 77 72 66 60 50 44 47 60 78 71 58 64 57 41 27 19 18 16 13 10 6 5 2 359 355
191 179 145 137 146 160 166 167 170 175 176 175 176 179 180 180 181 181 175 161 152 155 156 148 147 155 156 147 147 148 149 156 147 141 131 113 109 107 107 111 110 105 100 97 93 87 82 78 79 80 80 79 79 78 75 73 73 69 69 71 70 67 64 56 49 48 47 46 61 62 48 50 52 39 21 9 11 11 9 7 5 3 1 357 352
181 151 137 145 160 165 165 167 170 174 178 176 176 180 180 179 178 178 172 161 164 173 164 149 148 154 155 149 149 151 149 153 151 139 124 116 117 114 115 117 112 106 101 96 90 84 81 80 85 88 85 81 82 81 77 76 76 71 68 67 64 60 59 54 44 41 42 40 41 44 38 25 38 43 25 11 14 13 11 10 10 7 2 357 352